Terug naar catalogus

HXMT

ActiefWetenschapVLEO
NORAD 42758·PAYLOAD·🇨🇳 China

Gelanceerd Jun 15, 2017 vanaf Jiuquan Satellite Launch Center

Loading…

Volgende Passages (komende 24 uur)

TLE

VersSource: Space-Track

Epoch: Sep 14, 2026, 15:21 UTC

1 42758U 17034A   26257.63974677  .00003662  00000-0  18044-3 0  9999
2 42758  43.0151  44.6895 0031616 350.4307   9.5937 15.19128918511260

Volg HXMT in realtime met AllMySat

Download on the App Store